Location: Kvarnån
(66.4000°N, 22.2667°E)
Time: 17:17:28
(UTC+00:00)

Cosmos 614 Rocket - Visible Passes

Search period start: 18 January 2026 00:00
Search period end: 28 January 2026 00:00
Orbit: 729 x 757 km, 74.1° (Epoch: 17 January)

Date Brightness Start Highest point End Pass type
(mag) Time Alt. Az. Time Alt. Az. Time Alt. Az.
18 Jan 6.5 01:11:06 14° E 01:11:06 14° E 01:13:21 10° ENE visible
18 Jan 4.8 02:50:50 42° SE 02:51:15 43° ESE 02:56:01 10° NE visible
18 Jan 3.8 04:30:36 36° WSW 04:32:38 71° NW 04:37:43 10° NE visible
18 Jan 4.5 06:10:20 11° W 06:14:51 39° NNW 06:19:38 10° NE visible
19 Jan 5.5 02:07:14 30° E 02:07:14 30° E 02:11:13 10° NE visible
19 Jan 3.8 03:46:59 60° SW 03:47:55 86° SE 03:53:00 10° NE visible
19 Jan 4.3 05:26:43 20° W 05:29:53 45° NNW 05:34:47 10° NE visible
20 Jan 6.2 01:23:34 20° E 01:23:34 20° E 01:26:16 10° NE visible
20 Jan 4.2 03:03:19 63° ESE 03:03:19 63° ESE 03:08:18 10° NE visible
20 Jan 4.0 04:43:03 34° W 04:45:00 55° NNW 04:50:00 10° NE visible
20 Jan 4.6 06:22:47 10° WNW 06:27:24 36° N 06:32:06 10° ENE visible
21 Jan 6.7 00:39:53 12° ENE 00:39:53 12° ENE 00:40:56 10° ENE visible
21 Jan 5.0 02:19:36 40° E 02:19:36 40° E 02:23:34 10° NE visible
21 Jan 3.8 03:59:20 58° W 04:00:10 71° NW 04:05:16 10° NE visible
21 Jan 4.5 05:39:05 18° WNW 05:42:24 39° NNW 05:47:10 10° NE visible
22 Jan 5.8 01:35:51 26° ENE 01:35:51 26° ENE 01:38:46 10° NE visible
22 Jan 3.8 03:15:36 84° ENE 03:15:36 84° ENE 03:20:33 10° NE visible
22 Jan 4.3 04:55:19 29° WNW 04:57:26 45° NNW 05:02:19 10° NE visible
22 Jan 4.7 06:35:19 10° WNW 06:39:58 35° N 06:44:40 10° ENE visible
23 Jan 6.4 00:52:05 17° ENE 00:52:05 17° ENE 00:53:49 10° NE visible
23 Jan 4.6 02:31:49 52° ENE 02:31:49 52° ENE 02:35:51 10° NE visible
23 Jan 4.1 04:11:33 47° WNW 04:12:32 55° NNW 04:17:32 10° NE visible
23 Jan 4.7 05:51:17 15° WNW 05:54:57 36° N 05:59:39 10° ENE visible
24 Jan 6.8 00:08:18 11° ENE 00:08:18 11° ENE 00:08:31 10° ENE visible
24 Jan 5.5 01:48:01 32° ENE 01:48:01 32° ENE 01:51:07 10° NE visible
24 Jan 3.8 03:27:45 70° NW 03:27:45 70° NW 03:32:48 10° NE visible
24 Jan 4.6 05:07:28 24° WNW 05:09:57 39° NNW 05:14:44 10° NE visible
25 Jan 6.1 01:04:12 21° ENE 01:04:12 21° ENE 01:06:18 10° NE visible
25 Jan 4.3 02:43:56 60° NE 02:43:56 60° NE 02:48:05 10° NE visible
25 Jan 4.4 04:23:39 36° WNW 04:24:59 45° NNW 04:29:52 10° NE visible
25 Jan 4.8 06:03:23 13° WNW 06:07:31 35° N 06:12:13 10° ENE visible
26 Jan 6.6 00:20:21 14° ENE 00:20:21 14° ENE 00:21:22 10° NE visible
26 Jan 5.1 02:00:05 40° ENE 02:00:05 40° ENE 02:03:23 10° NE visible
26 Jan 4.1 03:39:49 53° NW 03:40:04 54° NNW 03:45:05 10° NE visible
26 Jan 4.7 05:19:32 20° WNW 05:22:29 36° N 05:27:12 10° ENE visible
27 Jan 5.8 01:16:13 26° ENE 01:16:13 26° ENE 01:18:39 10° NE visible
27 Jan 4.2 02:55:57 60° N 02:55:57 60° N 03:00:21 10° NE visible
27 Jan 4.6 04:35:40 29° WNW 04:37:29 39° NNW 04:42:16 10° NE visible
27 Jan 4.8 06:15:24 10° WNW 06:20:05 37° N 06:24:50 10° ENE visible
